Change the Weather History Date:

Wednesday, November 7, 2012

  Actual Average Record
Temperature  
Mean Temperature 74 °F -  
Max Temperature 78 °F 66 °F 78 °F (2012)
Min Temperature 71 °F 57 °F 50 °F (2006)
Cooling Degree Days 10    
Growing Degree Days 24 (Base 50)    
Moisture  
Dew Point 62 °F    
Average Humidity 65    
Maximum Humidity 83    
Minimum Humidity 50    
Precipitation  
Precipitation 0.00 in - - ()
Sea Level Pressure  
Sea Level Pressure 30.01 in    
Wind  
Wind Speed 7 mph ()    
Max Wind Speed 10 mph    
Max Gust Speed -    
Visibility 6.2 miles    
Events      
Averages and records for this station are not official NWS values.
T = Trace of Precipitation, MM = Missing Value Source: Averaged Metar Reports

Daily Weather History Graph

Daily Weather History Graph

Search for Another Location

Airport or City:

Trip Planner

Search our weather history database for the weather conditions in past years. The results will help you decide how hot, cold, wet, or windy it might be!

Date:

Astronomy

Nov. 07, 2012 Rise Set
Actual Time 6:47 AM EET 5:15 PM EET
Civil Twilight 6:20 AM EET 5:42 PM EET
Nautical Twilight 5:49 AM EET 6:13 PM EET
Astronomical Twilight 5:19 AM EET 6:43 PM EET
Moon No Moon Rise 1:03 PM EET (11/7)
Length of Visible Light 11h 22m
Length of Day
10h 28m
Last Quarter, 46% of the Moon is Illuminated
Nov 7
Last Quarter
Nov 14
New
Nov 20
First Quarter
Nov 28
Full
Dec 6
Last Quarter

Hourly Weather History & Observations

Time (EET) Temp. Dew Point Humidity Pressure Visibility Wind Dir Wind Speed Gust Speed Precip Events Conditions
6:50 AM 71.6 °F 66.2 °F 83% 29.98 in 6.2 mi West 10.4 mph - N/A   Partly Cloudy
7:20 AM 71.6 °F 66.2 °F 83% 29.98 in 6.2 mi West 10.4 mph - N/A   Partly Cloudy
7:50 AM 71.6 °F 66.2 °F 83% 30.01 in 6.2 mi WSW 9.2 mph - N/A   Partly Cloudy
8:20 AM 71.6 °F 66.2 °F 83% 30.01 in 6.2 mi WSW 9.2 mph - N/A   Partly Cloudy
8:50 AM 75.2 °F 62.6 °F 65% 30.04 in - West 9.2 mph - N/A   Clear
9:20 AM 75.2 °F 62.6 °F 65% 30.04 in - West 9.2 mph - N/A   Clear
9:50 AM 75.2 °F 62.6 °F 65% 30.04 in - West 8.1 mph - N/A   Clear
10:20 AM 75.2 °F 62.6 °F 65% 30.04 in - West 8.1 mph - N/A   Clear
10:50 AM 77.0 °F 62.6 °F 61% 30.04 in - West 9.2 mph - N/A   Clear
11:20 AM 77.0 °F 62.6 °F 61% 30.04 in - West 9.2 mph - N/A   Clear
11:50 AM 77.0 °F 57.2 °F 50% 30.01 in - NW 10.4 mph - N/A   Clear
12:20 PM 77.0 °F 57.2 °F 50% 30.01 in - NW 10.4 mph - N/A   Clear
12:50 PM 78.8 °F 59.0 °F 51% 30.01 in - WSW 9.2 mph - N/A   Clear
1:20 PM 78.8 °F 59.0 °F 51% 30.01 in - WSW 9.2 mph - N/A   Clear
1:50 PM 77.0 °F 60.8 °F 57% 30.01 in - WNW 10.4 mph - N/A   Clear
2:20 PM 77.0 °F 60.8 °F 57% 30.01 in - WNW 10.4 mph - N/A   Clear
2:50 PM 77.0 °F 59.0 °F 54% 30.01 in - West 9.2 mph - N/A   Clear
3:20 PM 75.2 °F 60.8 °F 61% 30.01 in 6.2 mi West 6.9 mph - N/A   Mostly Cloudy
3:50 PM 75.2 °F 60.8 °F 61% 29.98 in 6.2 mi West 4.6 mph - N/A   Mostly Cloudy
4:20 PM 75.2 °F 60.8 °F 61% 29.98 in 6.2 mi WSW 5.8 mph - N/A   Mostly Cloudy
4:50 PM 75.2 °F 60.8 °F 61% 29.98 in 6.2 mi WSW 4.6 mph - N/A   Scattered Clouds
5:20 PM 73.4 °F 60.8 °F 65% 29.98 in 6.2 mi Calm Calm - N/A   Scattered Clouds
5:50 PM 73.4 °F 60.8 °F 65% 29.98 in 6.2 mi Calm Calm - N/A   Scattered Clouds
7:50 PM 71.6 °F 62.6 °F 73% 29.98 in 6.2 mi WSW 4.6 mph - N/A   Scattered Clouds
8:20 PM 71.6 °F 64.4 °F 78% 29.98 in 6.2 mi West 4.6 mph - N/A   Mostly Cloudy
8:50 PM 71.6 °F 66.2 °F 83% 29.98 in 6.2 mi West 4.6 mph - N/A   Mostly Cloudy